TimeCST,TemperatureF,Dew PointF,Humidity,Sea Level PressureIn,VisibilityMPH,Wind Direction,Wind SpeedMPH,Gust SpeedMPH,PrecipitationIn,Events,Conditions,WindDirDegrees,DateUTC
12:15 AM,9.5,3.7,77,30.33,10.0,West,5.8,-,N/A,,Clear,270,2013-01-14 06:15:00
12:35 AM,10.4,3.9,75,30.33,10.0,Calm,Calm,-,N/A,,Clear,0,2013-01-14 06:35:00
12:55 AM,9.9,3.7,76,30.33,10.0,Calm,Calm,-,N/A,,Clear,0,2013-01-14 06:55:00
1:15 AM,8.8,3.2,78,30.33,10.0,Calm,Calm,-,N/A,,Clear,0,2013-01-14 07:15:00
1:35 AM,7.3,2.5,81,30.34,10.0,South,4.6,-,N/A,,Clear,170,2013-01-14 07:35:00
1:55 AM,7.9,3.2,81,30.34,10.0,SW,3.5,-,N/A,,Clear,220,2013-01-14 07:55:00
2:15 AM,9.0,3.9,80,30.35,10.0,Calm,Calm,-,N/A,,Clear,0,2013-01-14 08:15:00
2:55 AM,9.0,3.7,79,30.36,10.0,SW,3.5,-,N/A,,Clear,230,2013-01-14 08:55:00
3:15 AM,10.0,4.1,77,30.37,10.0,SW,3.5,-,N/A,,Clear,220,2013-01-14 09:15:00
3:35 AM,8.4,3.2,79,30.37,10.0,SSW,3.5,-,N/A,,Clear,210,2013-01-14 09:35:00
4:15 AM,6.4,2.5,84,30.36,10.0,Calm,Calm,-,N/A,,Clear,0,2013-01-14 10:15:00
4:35 AM,7.2,3.0,83,30.36,10.0,Calm,Calm,-,N/A,,Clear,0,2013-01-14 10:35:00
4:55 AM,7.7,3.6,83,30.36,10.0,Calm,Calm,-,N/A,,Clear,0,2013-01-14 10:55:00
5:15 AM,8.6,4.3,83,30.36,10.0,Calm,Calm,-,N/A,,Clear,0,2013-01-14 11:15:00
5:35 AM,8.6,4.1,82,30.36,10.0,WSW,3.5,-,N/A,,Clear,240,2013-01-14 11:35:00
5:55 AM,9.0,4.6,83,30.36,10.0,Calm,Calm,-,N/A,,Clear,0,2013-01-14 11:55:00
6:15 AM,7.7,3.4,83,30.38,10.0,SW,3.5,-,N/A,,Clear,220,2013-01-14 12:15:00
6:35 AM,7.9,3.7,83,30.39,10.0,SW,3.5,-,N/A,,Clear,230,2013-01-14 12:35:00
6:55 AM,7.7,3.6,83,30.40,10.0,SW,4.6,-,N/A,,Clear,230,2013-01-14 12:55:00
7:15 AM,7.7,3.7,84,30.41,10.0,SSW,3.5,-,N/A,,Clear,210,2013-01-14 13:15:00
7:35 AM,9.1,4.5,81,30.42,10.0,Calm,Calm,-,N/A,,Clear,0,2013-01-14 13:35:00
7:55 AM,8.4,4.1,83,30.42,10.0,Calm,Calm,-,N/A,,Clear,0,2013-01-14 13:55:00
8:15 AM,9.5,4.6,81,30.42,10.0,Calm,Calm,-,N/A,,Clear,0,2013-01-14 14:15:00
8:35 AM,10.6,5.2,79,30.43,10.0,Calm,Calm,-,N/A,,Clear,0,2013-01-14 14:35:00
8:55 AM,11.7,5.9,78,30.44,10.0,WSW,3.5,-,N/A,,Clear,250,2013-01-14 14:55:00
9:15 AM,12.7,6.8,77,30.44,10.0,West,5.8,-,N/A,,Clear,260,2013-01-14 15:15:00
9:35 AM,13.6,7.3,76,30.45,10.0,West,5.8,-,N/A,,Clear,260,2013-01-14 15:35:00
9:55 AM,15.3,8.4,74,30.44,10.0,West,5.8,-,N/A,,Clear,260,2013-01-14 15:55:00
10:15 AM,16.7,9.1,72,30.44,10.0,West,4.6,-,N/A,,Clear,260,2013-01-14 16:15:00
10:35 AM,18.0,9.9,71,30.44,10.0,WSW,4.6,-,N/A,,Clear,240,2013-01-14 16:35:00
10:55 AM,19.6,10.9,69,30.43,10.0,SW,4.6,-,N/A,,Clear,220,2013-01-14 16:55:00
11:35 AM,23.4,11.8,61,30.42,10.0,SW,9.2,-,N/A,,Clear,230,2013-01-14 17:35:00
11:55 AM,24.4,11.8,59,30.40,10.0,WSW,9.2,-,N/A,,Clear,240,2013-01-14 17:55:00
12:15 PM,25.2,11.3,56,30.38,10.0,WSW,9.2,-,N/A,,Clear,240,2013-01-14 18:15:00
12:35 PM,26.1,12.2,56,30.37,10.0,SW,9.2,-,N/A,,Clear,230,2013-01-14 18:35:00
12:55 PM,26.1,11.3,54,30.36,10.0,SW,8.1,-,N/A,,Clear,220,2013-01-14 18:55:00
1:15 PM,26.4,11.1,53,30.35,10.0,WSW,9.2,-,N/A,,Clear,240,2013-01-14 19:15:00
1:35 PM,26.6,11.1,52,30.35,10.0,SW,8.1,-,N/A,,Clear,230,2013-01-14 19:35:00
1:55 PM,27.0,11.3,52,30.35,10.0,SSW,8.1,-,N/A,,Clear,210,2013-01-14 19:55:00
2:15 PM,27.5,11.5,51,30.34,10.0,SW,11.5,-,N/A,,Clear,230,2013-01-14 20:15:00
2:35 PM,27.3,12.0,53,30.34,10.0,WSW,10.4,-,N/A,,Clear,250,2013-01-14 20:35:00
2:55 PM,27.3,11.8,52,30.34,10.0,WSW,9.2,-,N/A,,Clear,250,2013-01-14 20:55:00
3:15 PM,27.5,12.0,52,30.34,10.0,WSW,10.4,-,N/A,,Mostly Cloudy,250,2013-01-14 21:15:00
3:35 PM,27.5,12.0,52,30.34,10.0,WSW,6.9,-,N/A,,Scattered Clouds,240,2013-01-14 21:35:00
4:15 PM,27.3,11.3,51,30.34,10.0,WSW,6.9,-,N/A,,Clear,240,2013-01-14 22:15:00
4:35 PM,26.6,11.5,53,30.34,10.0,SW,6.9,-,N/A,,Clear,230,2013-01-14 22:35:00
4:55 PM,25.0,12.6,59,30.34,10.0,SW,4.6,-,N/A,,Clear,230,2013-01-14 22:55:00
5:15 PM,23.9,12.9,63,30.34,10.0,SW,4.6,-,N/A,,Scattered Clouds,220,2013-01-14 23:15:00
5:35 PM,23.0,11.8,62,30.34,10.0,SSW,3.5,-,N/A,,Scattered Clouds,210,2013-01-14 23:35:00
5:55 PM,22.1,11.8,65,30.35,10.0,South,3.5,-,N/A,,Clear,190,2013-01-14 23:55:00
6:15 PM,20.3,11.7,69,30.35,10.0,SSW,3.5,-,N/A,,Scattered Clouds,200,2013-01-15 00:15:00
6:35 PM,19.2,11.1,71,30.35,10.0,SSW,4.6,-,N/A,,Scattered Clouds,210,2013-01-15 00:35:00
6:55 PM,18.1,10.4,72,30.35,10.0,SSW,4.6,-,N/A,,Clear,210,2013-01-15 00:55:00
7:15 PM,19.6,11.3,70,30.36,10.0,SW,4.6,-,N/A,,Scattered Clouds,220,2013-01-15 01:15:00
7:35 PM,18.5,11.1,73,30.35,10.0,SSW,4.6,-,N/A,,Scattered Clouds,210,2013-01-15 01:35:00
7:55 PM,20.3,11.8,70,30.35,10.0,SW,4.6,-,N/A,,Mostly Cloudy,230,2013-01-15 01:55:00
8:15 PM,19.8,11.3,70,30.35,10.0,SW,5.8,-,N/A,,Mostly Cloudy,220,2013-01-15 02:15:00
8:35 PM,19.4,11.1,70,30.35,10.0,SSW,3.5,-,N/A,,Scattered Clouds,210,2013-01-15 02:35:00
8:55 PM,17.1,10.2,75,30.35,10.0,SSW,3.5,-,N/A,,Clear,200,2013-01-15 02:55:00
9:15 PM,16.0,10.4,79,30.34,10.0,South,4.6,-,N/A,,Scattered Clouds,190,2013-01-15 03:15:00
9:35 PM,17.6,11.3,76,30.34,10.0,SSW,3.5,-,N/A,,Scattered Clouds,200,2013-01-15 03:35:00
9:55 PM,18.1,11.1,74,30.34,10.0,South,3.5,-,N/A,,Clear,190,2013-01-15 03:55:00
10:15 PM,16.7,10.6,77,30.34,10.0,SSW,4.6,-,N/A,,Clear,200,2013-01-15 04:15:00
10:35 PM,17.1,10.8,76,30.34,10.0,South,3.5,-,N/A,,Clear,170,2013-01-15 04:35:00
10:55 PM,15.3,10.2,80,30.34,10.0,South,4.6,-,N/A,,Clear,170,2013-01-15 04:55:00
11:15 PM,13.6,9.1,82,30.34,10.0,South,4.6,-,N/A,,Clear,170,2013-01-15 05:15:00
11:35 PM,14.0,9.1,81,30.34,10.0,SSE,4.6,-,N/A,,Clear,160,2013-01-15 05:35:00
11:55 PM,14.2,9.5,82,30.34,10.0,Calm,Calm,-,N/A,,Clear,0,2013-01-15 05:55:00